Wind_Speed
8 11 7 7 14 12 12 15 15 14 13 15 17 16 10 8 7 9 13 16 15 13 12 9 9 8 9 11 13 16 18 18 16 12 12 11 10 11 11 13 15 12 11 12
5 7 2 2 7 9 12 17 18 19 17 15 17 17 15 13 7 6 8 13 10 13 16 12 10 11 10 9 13 20 21 20 18 15 12 12 11 10 12 10 11 10 9 9
8 4 8 13 13 15 16 21 21 25 22 15 21 23 24 23 19 18 17 14 14 11 9 8 10 8 10 12 13 19 23 23 20 18 17 15 13 13 11 10 10 11 12 14
9 3 6 8 9 7 13 14 17 25 22 11 9 7 13 13 19 25 22 19 16 15 9 10 8 7 8 11 13 17 22 24 22 23 22 19 16 14 13 12 13 14 15 15
7 9 10 10 10 11 7 6 14 22 21 14 13 9 19 17 16 19 26 21 16 16 14 10 9 6 5 11 10 13 20 24 25 25 24 22 20 19 18 17 18 17 17 15
17 14 12 7 13 9 10 6 11 14 12 10 24 16 25 15 12 16 19 24 18 19 17 14 10 11 8 8 11 13 17 23 26 25 27 25 23 23 22 21 19 19 18 15
17 17 13 12 16 14 16 14 3 1 1 9 11 9 20 17 16 18 11 15 19 18 18 17 17 15 16 12 9 10 15 19 25 27 27 26 27 27 25 23 22 20 18 16
14 10 11 20 20 18 15 20 9 7 5 7 6 11 15 9 16 16 14 15 20 23 21 21 20 20 19 19 14 15 12 15 22 28 29 28 27 26 23 22 21 20 18 18
7 10 2 7 17 9 16 25 21 19 6 4 8 14 22 20 22 20 14 16 21 25 29 28 29 28 28 27 23 22 22 21 22 23 25 28 28 26 25 20 19 20 20 20
25 29 26 16 13 13 17 14 16 14 5 5 8 11 15 15 15 18 15 14 20 24 27 29 28 29 31 33 33 33 26 32 28 26 29 25 20 20 23 24 23 22 22 23
19 22 33 30 26 20 17 17 15 12 7 6 3 12 18 18 17 14 11 15 17 24 28 27 26 31 34 36 37 36 33 34 25 33 23 20 10 14 19 21 25 25 28 24
6 8 24 28 26 27 18 19 15 16 7 7 6 14 17 18 19 18 12 14 15 18 26 26 24 28 32 34 33 25 28 37 18 18 14 17 17 23 26 26 27 29 27 23
7 8 6 15 21 18 19 17 16 16 15 15 7 14 21 20 18 15 13 15 16 16 19 20 16 23 24 28 23 17 27 23 14 19 19 22 23 25 24 27 27 22 26 28
10 13 11 12 15 14 13 13 15 15 13 15 21 22 18 17 16 15 9 8 5 4 6 9 9 8 9 8 8 16 17 12 10 11 11 11 13 15 17 18 19 18 14 14
15 15 12 8 7 6 6 8 8 10 12 11 12 12 16 15 9 11 10 6 2 4 8 7 9 13 13 13 10 9 9 7 9 8 9 10 13 13 15 15 15 16 19 19
10 12 14 13 10 7 8 8 7 5 7 8 10 13 15 13 13 13 7 5 6 9 9 10 10 11 10 9 7 7 6 6 4 4 7 9 12 14 15 15 17 18 20 21
10 10 15 10 13 8 6 8 9 8 9 7 6 7 7 11 14 7 4 4 5 7 7 7 8 10 11 9 7 6 6 7 9 12 14 15 17 19 21 22 24 30 31 34
10 9 8 7 13 2 8 10 8 6 5 7 6 7 14 14 9 4 4 6 3 4 7 7 6 5 4 4 5 7 10 15 18 19 21 23 24 26 27 27 29 31 33 34
11 11 9 5 12 4 11 15 12 6 5 3 8 9 9 7 1 3 5 1 7 12 10 4 3 4 4 6 8 10 13 16 20 22 25 25 26 27 28 28 29 30 30 29
6 8 11 10 5 7 11 19 15 10 9 8 13 13 6 7 12 14 19 25 19 14 18 11 7 7 6 10 15 19 21 20 21 22 23 24 26 27 28 29 29 29 29 28
6 5 9 9 4 3 7 22 19 11 6 7 6 10 7 7 7 6 3 10 14 14 10 7 8 9 10 16 18 17 15 15 15 16 19 20 22 24 26 27 27 27 27 26
7 5 5 4 3 3 5 6 16 6 5 2 5 1 2 4 5 5 3 9 12 11 9 7 7 11 17 18 17 17 14 15 15 17 18 19 21 22 23 25 24 23 23 24
7 5 5 4 2 4 5 7 5 6 3 2 1 1 2 7 5 8 6 11 10 8 10 9 10 15 16 19 18 15 15 15 16 17 19 18 20 20 21 22 23 22 23 24
9 7 5 4 2 1 1 5 4 1 1 1 3 7 7 3 4 6 6 5 7 10 11 11 14 15 17 21 19 16 16 17 17 17 18 17 18 19 21 24 25 24 20 20
6 7 7 9 5 2 2 2 1 1 1 3 9 13 8 6 8 10 10 7 8 10 11 13 14 17 19 22 19 17 17 16 16 17 17 16 17 18 20 20 17 15 13 14
3 3 5 5 4 2 2 2 4 4 5 8 13 15 8 7 10 11 10 9 8 9 11 13 16 19 23 21 17 14 14 15 15 15 15 16 16 16 13 13 12 15 16 16
Wind_Direction
186 184 168 65 181 347 205 214 248 234 235 240 254 269 286 285 266 237 217 219 219 191 183 199 196 205 212 223 226 217 211 209 209 205 198 202 201 209 217 245 254 254 251 249
206 157 133 301 244 252 218 240 242 236 244 264 257 260 274 252 229 230 238 233 222 205 204 205 213 222 236 243 228 215 213 211 209 209 214 214 205 195 208 226 224 238 246 255
255 144 319 303 298 276 256 251 256 233 238 268 270 268 257 265 249 233 222 222 239 243 216 205 226 233 246 237 218 212 214 213 211 210 220 223 220 214 213 230 237 243 257 257
261 56 51 344 332 295 266 266 264 234 244 257 263 287 281 272 270 249 241 230 218 221 192 203 209 227 254 242 227 214 216 219 217 218 221 228 236 238 239 246 257 259 267 263
221 211 303 319 329 311 290 282 245 231 244 253 276 248 285 298 281 283 246 234 216 218 219 181 170 221 244 234 234 223 216 217 218 221 226 232 239 243 246 253 261 264 270 269
251 250 282 300 314 320 296 286 213 225 241 275 271 245 286 278 286 295 271 246 219 207 217 225 203 215 237 231 225 226 222 217 218 224 228 233 241 247 249 250 257 254 263 274
253 260 253 259 270 268 253 239 116 14 190 237 262 221 261 281 280 285 246 247 224 210 223 221 226 216 223 238 235 235 233 227 224 226 231 233 239 245 247 251 256 253 263 273
268 272 252 243 246 257 254 219 186 194 197 234 230 238 253 284 290 296 280 225 221 220 227 235 238 236 238 246 260 245 232 232 232 231 231 233 240 245 249 260 268 273 268 268
263 256 261 224 218 245 226 214 242 246 270 218 229 245 267 281 288 284 267 248 222 219 228 230 235 239 243 242 255 243 244 236 239 234 238 237 241 248 250 260 270 268 264 261
248 260 264 261 254 255 243 250 221 219 161 218 233 248 253 285 291 301 274 259 243 236 230 237 235 238 240 243 242 245 251 245 246 245 237 236 241 254 264 271 277 270 273 269
241 247 265 267 264 271 254 237 231 253 237 192 228 262 266 275 289 278 278 285 266 243 240 245 253 251 247 246 246 250 246 248 243 232 254 237 291 279 276 274 280 275 272 275
229 249 253 265 263 257 260 249 249 237 240 238 254 272 276 286 283 261 256 267 260 248 244 253 259 265 261 253 250 280 280 306 324 336 304 288 282 272 273 275 277 268 273 262
265 251 264 263 256 243 235 238 243 249 252 255 225 271 286 294 288 255 232 235 248 259 261 251 278 265 276 280 255 287 280 286 295 288 284 275 270 269 272 273 275 277 272 265
262 255 244 240 243 218 214 228 242 247 256 262 261 272 276 275 270 232 239 252 265 265 261 260 298 283 253 271 263 258 274 284 269 265 261 263 267 266 270 270 259 257 248 267
254 246 225 192 180 189 231 228 235 241 252 252 268 263 262 261 235 191 198 198 235 278 272 243 253 256 249 257 265 268 288 283 290 258 268 254 248 258 273 266 263 269 277 280
242 222 196 181 183 193 228 234 234 227 229 243 266 265 256 256 179 158 169 204 228 242 244 251 246 259 277 294 302 315 324 313 316 316 314 305 304 300 295 298 297 294 293 292
249 214 188 192 184 197 216 222 232 248 259 254 246 268 259 169 141 150 194 231 210 190 198 232 266 276 283 295 310 314 307 301 302 305 297 293 288 286 288 284 283 279 280 276
230 218 218 209 204 230 233 208 209 210 242 269 234 200 169 150 140 130 191 177 207 258 258 251 243 238 222 219 257 280 291 296 297 299 299 300 299 297 294 287 281 278 278 280
228 230 229 203 207 250 190 199 179 164 133 130 150 151 144 150 145 120 128 31 294 292 271 246 244 242 262 289 292 288 284 284 286 289 291 290 290 291 292 292 290 289 286 283
212 229 222 205 195 195 259 202 199 210 239 269 275 285 239 282 276 276 266 291 271 258 263 249 223 231 256 282 283 283 283 288 290 290 290 293 295 296 297 297 296 293 291 289
176 200 229 215 223 219 215 205 224 237 272 290 282 248 271 279 253 261 263 222 214 224 239 241 216 252 289 298 302 307 303 297 299 303 302 301 299 298 295 293 293 292 291 290
200 203 198 204 238 251 247 227 216 232 282 321 349 231 180 209 218 266 259 214 231 244 243 242 262 279 302 314 321 317 309 304 307 304 301 298 295 295 296 296 292 290 288 286
204 213 207 218 243 292 298 248 220 251 285 306 170 186 255 293 261 275 266 219 239 226 241 269 270 289 305 308 313 307 301 299 300 299 296 296 296 297 296 296 293 293 291 289
232 215 205 205 279 261 28 227 246 276 193 134 313 306 309 266 288 305 297 268 232 237 251 259 276 289 295 306 315 308 299 296 299 304 302 298 297 300 303 301 297 293 290 285
226 230 258 277 250 235 121 156 253 47 37 313 314 322 322 292 285 286 297 274 247 236 247 266 278 290 298 304 304 297 291 299 310 308 303 299 300 301 303 299 297 293 293 289
269 295 296 297 291 221 267 266 288 306 311 300 305 311 307 274 277 282 283 272 257 244 257 269 277 283 291 297 299 300 305 310 308 304 301 298 298 297 299 308 300 287 294 297
Height
3189 3191 3191 3194 3194 3194 3195 3195 3194 3194 3196 3196 3196 3196 3198 3199 3198 3198 3200 3202 3203 3205 3208 3209 3209 3210 3212 3214 3215 3216 3218 3220 3222 3224 3224 3225 3227 3227 3229 3230 3230 3231 3232 3232
3191 3190 3192 3193 3195 3196 3196 3194 3194 3195 3196 3195 3194 3195 3195 3197 3199 3199 3198 3199 3201 3203 3204 3205 3207 3208 3210 3211 3212 3213 3215 3217 3219 3221 3223 3224 3225 3226 3227 3229 3229 3229 3229 3229
3189 3191 3190 3191 3192 3192 3193 3192 3193 3195 3195 3195 3195 3193 3193 3193 3194 3196 3197 3197 3199 3201 3201 3202 3205 3206 3207 3208 3209 3210 3212 3214 3216 3217 3219 3221 3223 3224 3225 3227 3227 3228 3227 3228
3189 3190 3190 3190 3190 3190 3188 3190 3191 3194 3196 3197 3196 3192 3187 3189 3189 3189 3192 3195 3196 3198 3199 3200 3202 3204 3205 3206 3206 3206 3208 3210 3212 3213 3215 3218 3220 3221 3223 3223 3223 3223 3225 3224
3188 3188 3189 3189 3189 3189 3189 3188 3190 3193 3194 3196 3195 3197 3184 3184 3184 3183 3187 3191 3192 3194 3197 3198 3200 3202 3203 3203 3204 3204 3205 3206 3208 3210 3212 3214 3216 3218 3219 3220 3220 3219 3220 3221
3185 3187 3187 3187 3188 3187 3187 3188 3189 3193 3195 3195 3191 3194 3178 3180 3181 3181 3182 3186 3190 3192 3194 3197 3199 3201 3201 3201 3201 3202 3202 3203 3205 3207 3208 3210 3213 3214 3215 3215 3215 3216 3216 3217
3183 3183 3184 3186 3187 3187 3187 3189 3191 3195 3196 3192 3188 3188 3179 3178 3178 3177 3179 3180 3186 3190 3191 3194 3195 3197 3199 3200 3201 3201 3201 3202 3203 3203 3204 3206 3207 3207 3208 3209 3209 3209 3210 3211
3180 3179 3179 3181 3182 3183 3182 3184 3185 3191 3193 3185 3184 3179 3174 3175 3176 3175 3174 3177 3179 3184 3188 3190 3193 3195 3198 3199 3199 3200 3200 3201 3201 3200 3200 3201 3202 3203 3204 3204 3202 3202 3206 3207
3176 3175 3176 3177 3178 3180 3180 3180 3182 3181 3181 3180 3176 3174 3171 3171 3171 3171 3171 3172 3174 3176 3179 3182 3184 3188 3193 3195 3196 3196 3197 3196 3197 3197 3196 3197 3197 3198 3197 3199 3198 3200 3200 3201
3174 3174 3173 3175 3176 3176 3175 3177 3178 3177 3179 3178 3170 3169 3167 3168 3167 3168 3168 3169 3170 3171 3174 3177 3179 3182 3186 3188 3190 3192 3194 3191 3191 3191 3191 3186 3189 3191 3191 3193 3194 3194 3195 3195
3170 3171 3167 3169 3170 3171 3171 3169 3169 3168 3167 3166 3169 3164 3164 3164 3165 3166 3167 3167 3167 3170 3172 3174 3177 3179 3180 3182 3184 3186 3185 3184 3173 3179 3179 3174 3177 3186 3188 3188 3187 3188 3188 3188
3166 3164 3162 3162 3164 3164 3165 3164 3163 3163 3165 3163 3162 3160 3161 3161 3162 3162 3163 3165 3167 3170 3172 3174 3175 3176 3176 3176 3176 3168 3160 3170 3158 3157 3167 3172 3179 3183 3184 3184 3183 3184 3181 3181
3163 3161 3160 3157 3159 3158 3159 3160 3159 3159 3159 3158 3159 3158 3159 3159 3158 3158 3159 3161 3165 3168 3170 3170 3170 3168 3169 3170 3163 3172 3172 3173 3165 3168 3169 3177 3180 3181 3178 3178 3177 3176 3176 3174
3160 3158 3157 3155 3154 3154 3154 3155 3155 3155 3155 3154 3153 3153 3154 3154 3155 3156 3158 3159 3160 3162 3165 3166 3167 3167 3167 3166 3165 3168 3168 3168 3167 3166 3169 3168 3171 3175 3174 3172 3173 3171 3170 3172
3156 3153 3153 3152 3151 3151 3152 3152 3152 3153 3153 3153 3152 3150 3150 3151 3152 3154 3156 3157 3158 3160 3161 3163 3165 3166 3166 3165 3164 3165 3165 3164 3164 3166 3166 3166 3168 3168 3167 3167 3168 3166 3166 3166
3151 3149 3149 3148 3148 3149 3149 3150 3150 3151 3150 3150 3149 3148 3146 3147 3149 3153 3156 3157 3157 3157 3159 3161 3163 3164 3163 3161 3161 3161 3161 3162 3162 3163 3163 3165 3164 3164 3163 3165 3163 3161 3161 3160
3148 3147 3148 3147 3147 3147 3148 3148 3148 3148 3148 3148 3148 3147 3146 3147 3150 3153 3155 3156 3156 3156 3158 3159 3159 3160 3159 3159 3159 3160 3160 3160 3160 3160 3161 3160 3160 3161 3160 3159 3156 3156 3156 3155
3146 3146 3146 3145 3146 3148 3146 3147 3147 3147 3147 3147 3147 3145 3146 3151 3153 3153 3154 3155 3157 3158 3157 3156 3157 3158 3158 3158 3158 3159 3159 3159 3158 3157 3156 3155 3155 3154 3154 3154 3152 3150 3149 3148
3143 3144 3144 3144 3145 3146 3145 3145 3146 3147 3149 3147 3149 3148 3150 3151 3150 3155 3154 3154 3156 3157 3157 3156 3155 3155 3156 3157 3156 3157 3157 3158 3158 3155 3153 3152 3150 3148 3148 3145 3143 3142 3141 3141
3142 3142 3143 3142 3142 3143 3142 3144 3145 3147 3148 3149 3148 3149 3150 3152 3151 3152 3149 3149 3153 3154 3153 3153 3154 3155 3156 3157 3156 3155 3153 3152 3149 3147 3146 3143 3142 3142 3140 3138 3138 3137 3136 3135
3140 3140 3140 3139 3139 3140 3141 3143 3145 3148 3151 3147 3145 3147 3148 3148 3148 3148 3148 3148 3150 3152 3152 3151 3153 3153 3154 3153 3151 3148 3147 3145 3145 3143 3142 3140 3138 3136 3135 3133 3131 3131 3130 3128
3139 3139 3139 3139 3140 3141 3140 3142 3144 3146 3145 3145 3145 3145 3146 3146 3146 3146 3146 3147 3148 3149 3148 3149 3149 3150 3150 3148 3145 3143 3142 3141 3140 3139 3137 3136 3134 3132 3130 3129 3128 3126 3124 3123
3138 3137 3138 3139 3139 3138 3138 3140 3142 3143 3143 3143 3143 3144 3145 3144 3144 3144 3144 3146 3145 3146 3146 3145 3146 3146 3144 3143 3142 3141 3139 3137 3136 3135 3133 3131 3129 3128 3126 3125 3123 3120 3119 3117
3134 3135 3136 3138 3137 3137 3138 3139 3141 3141 3141 3141 3142 3143 3142 3142 3142 3142 3143 3143 3143 3144 3143 3143 3143 3142 3141 3139 3137 3136 3135 3133 3132 3130 3128 3125 3124 3123 3121 3119 3116 3113 3112 3110
3134 3134 3135 3135 3136 3137 3138 3139 3140 3140 3140 3140 3140 3139 3138 3139 3140 3140 3139 3139 3139 3140 3140 3140 3139 3138 3136 3134 3134 3132 3131 3129 3126 3124 3122 3121 3119 3118 3116 3114 3110 3109 3108 3107
3133 3134 3134 3135 3135 3136 3137 3137 3138 3138 3139 3138 3137 3136 3136 3136 3136 3135 3135 3134 3134 3134 3135 3136 3135 3134 3132 3131 3129 3126 3124 3122 3121 3120 3118 3117 3115 3114 3112 3109 3107 3106 3105 3104